STARLINK-1800, 46700

Orbit data source: Space-Track

STARLINK-1800, 46700 is a payload satellite owned by SpaceX/Seattle (US) in LEO that was launched on Sun, 18 Oct 2020 UTC via an FALCON 9 launch vehicle from the Air Force Eastern Test Range (AFETR). Payloads include a variety of satellites, spacecraft, and rockets equipped with specific instruments for various scientific and technological missions. These include communications satellites like Starlink; space stations such as the ISS; scientific satellites like the Hubble; Earth observation satellites from companies like Planet Labs, Umbra, and HawkEye 360; GPS; miniature CubeSats for education and research; and military/defense satellites.

Loading next visibility...
STARLINK-1800 details
Identifier
46700, 2020-073AG
Orbit
LEO
Last TLE update23 hours ago
Origin
Flag of USSpaceX/Seattle (US)
ManufacturerSpaceX/Seattle
MissionOperational Commercial Communications
Bus & MotorSTARLINK, Unknown motor
Mass260 kg wet, ~248 kg dry
Launch date (UTC)
2020-10-18 (4 years ago)
Launch vehicle
FALCON 9
Launch site
Air Force Eastern Test Range (AFETR)
Object type
Payload
Rocket body
Debris
Shape & HBRBox + 1 Pan, 8.86 m
Radar Cross Section13.562 m², Large (>1 m²)

Expand to show TLE details & history

TLE from 23 hours ago
0 STARLINK-1800
1 46700U 20073AG  24360.51146616  .00028963  00000-0  19570-2 0  9996
2 46700  53.0545  68.1676 0001352  90.3139 269.8005 15.06368506231209
Epoch: 2024-12-25T12:16Z
Definitive object data (Epoch: 2024-12-25T12:16:30.676Z)
Latitude
Longitude149.53562°
Altitude548.191 km
Speed7.589 km/s
True Right ascension04h 32m 40s
True Declination0° 00' 00"
Sunlit
Object was in full shadow at TLE epoch
Visualization TLE readout
Latitude-43.16825°
Longitude9.72237°
Altitude562.372 km
Speed7.58 km/s
Apparent Right ascension21h 03m 57s
Apparent Declination-45° 01' 38"
Sunlit
Object is in daylight
Visualization observer readout
Local Sidereal Time10:58:42
Azimuth113.106° SE
Elevation-68.355°
Doppler factor1
Orbital elements
Apogee altitude548.515 km
Perigee altitude546.642 km
Semi-major axis6,925.716 km
Eccentricity0.0001352
Inclination53.0545°
RAAN68.1676°
Arg. of periapsis90.3139°
True anomaly269.78501°
Mean anomaly269.8005°
Eccentric anomaly269.79275°
Mean motion3.7657 °/min
BSTAR0.001957
Orbital period95.6 mins
Loading maneuver chart data...
Loading historical data...
Loading historical data...
Loading historical data...
Loading historical data...
Loading historical data...
Loading historical data...
Loading historical data...

STARLINK-1800 Visibility forecast

Observer location: undefined°, undefined

Span
Click to sort rows by Start time (UTC) header in descending order
Start Az.
Max El. time (UTC)
Max El. Az.
Max El.
End time (UTC)
End Az.
5 mins2024-12-26 12:36:20.000Z337.244° NNW2024-12-26 12:39:20.000Z32.021° NE19.994°2024-12-26 12:41:20.000Z66.049° ENE
6 mins2024-12-26 14:16:20.000Z308.205° NW2024-12-26 14:19:20.000Z142.197° SSE42.776°2024-12-26 14:22:20.000Z133.008° SE
4 mins2024-12-27 05:50:20.000Z153.446° SSE2024-12-27 05:51:20.000Z136.174° SSE16.747°2024-12-27 05:54:20.000Z86.858° E
6 mins2024-12-27 07:28:20.000Z245.977° WSW2024-12-27 07:31:20.000Z354.529° N40.622°2024-12-27 07:34:20.000Z43.206° NE
4 mins2024-12-27 09:09:20.000Z311.294° NW2024-12-27 09:11:20.000Z346.515° N17.022°2024-12-27 09:13:20.000Z19.291° NNE
|